Szolnok, Hungary

6:13 AM CEST on April 24, 2017 (GMT +0200)
Szolnok

Weather History for LHSN - January, 2013

Change the Weather History Date:

Sunday, January 20, 2013

  Actual Average (LHBP) Record (LHBP)
Temperature  
Mean Temperature 32 °F -  
Max Temperature 35 °F 36 °F 55 °F (2008)
Min Temperature 28 °F 24 °F 6 °F (2017)
Degree Days  
Heating Degree Days 34    
Moisture  
Dew Point 30 °F    
Average Humidity 90    
Maximum Humidity 100    
Minimum Humidity 80    
Precipitation  
Precipitation 0.00 in - - ()
Sea Level Pressure  
Sea Level Pressure 29.56 in    
Wind  
Wind Speed 8 mph ()    
Max Wind Speed 16 mph    
Max Gust Speed -    
Visibility 4.5 miles    
Events Rain , Snow    
Averages and records for this station are not official NWS values.
T = Trace of Precipitation, MM = Missing Value Source: Averaged Metar Reports

Daily Weather History Graph

Daily Weather History Graph

Search for Another Location

Airport or City:

Trip Planner

Search our weather history database for the weather conditions in past years. The results will help you decide how hot, cold, wet, or windy it might be!

Date:

Astronomy

Jan. 20, 2013 Rise Set
Actual Time 7:17 AM CET 4:23 PM CET
Civil Twilight 6:43 AM CET 4:57 PM CET
Nautical Twilight 6:05 AM CET 5:34 PM CET
Astronomical Twilight 5:29 AM CET 6:11 PM CET
Moon 11:15 AM CET (1/20) 1:28 AM CET (1/20)
Length of Visible Light 10h 14m
Length of Day
9h 06m
Waxing Gibbous, 64% of the Moon is Illuminated
Jan 20
Waxing Gibbous
Jan 27
Full
Feb 3
Last Quarter
Feb 10
New
Feb 17
First Quarter

Hourly Weather History & Observations

Time (CET) Temp. Windchill Dew Point Humidity Pressure Visibility Wind Dir Wind Speed Gust Speed Precip Events Conditions
12:15 AM 28.4 °F 19.9 °F 24.8 °F 86% 29.62 in 3.7 mi SSE 8.9 mph - N/A   Mostly Cloudy
12:45 AM 28.4 °F 19.9 °F 24.8 °F 86% 29.62 in 3.7 mi SSE 8.9 mph - N/A   Mostly Cloudy
1:15 AM 28.4 °F 19.9 °F 24.8 °F 86% 29.62 in 5.0 mi SSE 8.9 mph - N/A   Mostly Cloudy
1:45 AM 30.2 °F 22.1 °F 24.8 °F 80% 29.62 in 5.0 mi South 8.9 mph - N/A   Mostly Cloudy
2:15 AM 28.4 °F 19.9 °F 26.6 °F 93% 29.62 in 3.1 mi SE 8.9 mph - N/A   Mostly Cloudy
2:45 AM 28.4 °F 18.7 °F 26.6 °F 93% 29.62 in 3.1 mi South 11.2 mph - N/A   Overcast
3:15 AM 30.2 °F 20.9 °F 26.6 °F 86% 29.62 in 2.5 mi South 11.2 mph - N/A   Overcast
3:22 AM 30.2 °F 20.9 °F 26.6 °F 86% 29.62 in 1.9 mi South 11.2 mph - N/A Snow Light Snow
3:45 AM 30.2 °F 20.9 °F 26.6 °F 86% 29.59 in 2.5 mi South 11.2 mph - N/A Rain , Snow Light Freezing Rain
4:15 AM 30.2 °F 20.9 °F 28.4 °F 93% 29.59 in 1.9 mi South 11.2 mph - N/A Rain , Snow Light Freezing Rain
4:45 AM 30.2 °F 20.9 °F 28.4 °F 93% 29.59 in 2.5 mi South 11.2 mph - N/A Rain , Snow Light Freezing Rain
5:15 AM 32.0 °F 23.2 °F 30.2 °F 93% 29.59 in 3.1 mi South 11.2 mph - N/A Rain Light Freezing Rain
5:45 AM - - - N/A% - 3.1 mi South 8.9 mph - N/A   Overcast
6:15 AM 32.0 °F 24.3 °F 30.2 °F 93% 29.59 in 3.1 mi SSE 8.9 mph - N/A   Overcast
6:45 AM 32.0 °F 23.2 °F 30.2 °F 93% 29.59 in 3.1 mi SSE 11.2 mph - N/A   Overcast
7:15 AM 33.8 °F 25.4 °F 32.0 °F 93% 29.59 in 5.0 mi SSE 11.2 mph - N/A   Overcast
7:45 AM 33.8 °F 24.5 °F 30.2 °F 87% 29.59 in 5.0 mi South 13.4 mph - N/A   Overcast
7:49 AM 33.8 °F 23.7 °F 30.2 °F 87% 29.59 in 5.0 mi South 15.7 mph - N/A Rain Light Rain
8:15 AM 33.8 °F 23.7 °F 30.2 °F 87% 29.59 in 5.0 mi South 15.7 mph - N/A Rain Light Rain
8:45 AM - - - N/A% - 5.0 mi SSE 11.2 mph - N/A   Overcast
9:15 AM 33.8 °F 24.5 °F 32.0 °F 93% 29.59 in 3.7 mi South 13.4 mph - N/A Rain Light Rain
9:45 AM 33.8 °F 24.5 °F 32.0 °F 93% 29.59 in 5.0 mi South 13.4 mph - N/A Rain Light Rain
10:15 AM 33.8 °F 26.5 °F 32.0 °F 93% 29.59 in 6.2 mi SE 8.9 mph - N/A   Overcast
10:45 AM 33.8 °F 26.5 °F 32.0 °F 93% 29.59 in 6.2 mi SE 8.9 mph - N/A   Overcast
11:15 AM 33.8 °F 27.9 °F 32.0 °F 93% 29.59 in 6.2 mi SE 6.7 mph - N/A Rain Light Rain
11:45 AM - - - N/A% - 6.2 mi ESE 6.7 mph - N/A   Mostly Cloudy
12:15 PM 35.6 °F 30.0 °F 32.0 °F 87% 29.56 in 6.2 mi SE 6.7 mph - N/A Rain Light Rain
12:45 PM 35.6 °F 30.0 °F 32.0 °F 87% 29.56 in 6.2 mi SE 6.7 mph - N/A Rain Light Rain
1:15 PM 35.6 °F 30.0 °F 32.0 °F 87% 29.53 in 6.2 mi SE 6.7 mph - N/A   Mostly Cloudy
1:45 PM 35.6 °F 30.0 °F 32.0 °F 87% 29.53 in 6.2 mi SE 6.7 mph - N/A   Mostly Cloudy
2:15 PM 35.6 °F 30.0 °F 32.0 °F 87% 29.53 in 6.2 mi SE 6.7 mph - N/A   Mostly Cloudy
2:45 PM - - - N/A% - 6.2 mi SE 6.7 mph - N/A   Overcast
3:15 PM 35.6 °F 30.0 °F 32.0 °F 87% 29.50 in 6.2 mi ESE 6.7 mph - N/A   Mostly Cloudy
3:45 PM 35.6 °F 30.0 °F 32.0 °F 87% 29.50 in 6.2 mi East 6.7 mph - N/A   Mostly Cloudy
4:15 PM 33.8 °F 29.7 °F 32.0 °F 93% 29.53 in - East 4.5 mph - N/A   Clear
4:45 PM 33.8 °F 29.7 °F 32.0 °F 93% 29.50 in - East 4.5 mph - N/A   Clear
5:15 PM 33.8 °F 29.7 °F 32.0 °F 93% 29.53 in - East 4.5 mph - N/A   Clear
5:45 PM - - - N/A% - 3.1 mi East 4.5 mph - N/A Rain Overcast
6:15 PM 33.8 °F 29.7 °F 32.0 °F 93% 29.50 in - ENE 4.5 mph - N/A   Clear
6:45 PM 33.8 °F 29.7 °F 32.0 °F 93% 29.50 in - East 4.5 mph - N/A   Clear
7:15 PM 33.8 °F 29.7 °F 32.0 °F 93% 29.50 in - East 4.5 mph - N/A   Clear
7:45 PM 33.8 °F 29.7 °F 32.0 °F 93% 29.50 in - East 4.5 mph - N/A   Clear
8:15 PM 33.8 °F 29.7 °F 32.0 °F 93% 29.50 in - ENE 4.5 mph - N/A   Clear
8:45 PM - - - N/A% - 3.1 mi East 4.5 mph - N/A Rain Overcast
9:15 PM 33.8 °F 29.7 °F 32.0 °F 93% 29.50 in 5.0 mi ENE 4.5 mph - N/A Rain Light Rain
9:45 PM 33.8 °F 29.7 °F 32.0 °F 93% 29.50 in 5.0 mi ENE 4.5 mph - N/A Rain Light Rain
10:15 PM 33.8 °F 27.9 °F 32.0 °F 93% 29.50 in 5.0 mi ENE 6.7 mph - N/A   Unknown
10:45 PM 33.8 °F 27.9 °F 32.0 °F 93% 29.50 in 5.0 mi ENE 6.7 mph - N/A   Unknown
11:15 PM 33.8 °F 29.7 °F 33.8 °F 100% 29.50 in 3.7 mi ENE 4.5 mph - N/A Rain Light Rain
11:45 PM - - - N/A% - 3.1 mi North - - N/A Rain Overcast